Location: Anjeux
(47.8815°N, 6.2076°E)
Time: 07:00:10
(UTC+00:00)

Tiangong - Visible Passes

Search period start: 23 September 2021 00:00
Search period end: 03 October 2021 00:00
Orbit: 382 x 385 km, 41.5° (Epoch: 22 September)

Date Brightness Start Highest point End Pass type
(mag) Time Alt. Az. Time Alt. Az. Time Alt. Az.
27 Sep 3.6 04:36:39 10° SSW 04:38:32 15° SSE 04:40:27 10° ESE visible
28 Sep 3.8 03:38:29 10° SSE 03:38:54 11° SSE 03:39:41 10° SE visible
29 Sep 3.1 04:13:45 14° SSW 04:15:20 19° SSE 04:17:42 10° ESE visible
30 Sep 3.8 03:16:47 13° SE 03:16:47 13° SE 03:17:33 10° ESE visible
30 Sep 2.7 04:49:14 10° SW 04:51:54 25° S 04:54:34 10° ESE visible
01 Oct 2.7 03:51:59 23° S 03:52:09 23° S 03:54:44 10° ESE visible
02 Oct 2.6 04:27:10 17° SW 04:28:44 25° S 04:31:25 10° SE visible
